This is the latest recevied weather packets stored in our database for station/object K5OLV. If no packets are shown the sender has not sent any weather packets the latest 10 day(s).
| Time | Temp. | Humidity | Pressure | Rain* | Wind** | Luminosity | Snow |
|---|---|---|---|---|---|---|---|
| 1787947275 | 30.56° C | 61% | 1015.2 hPa | 0 mm | - | 613 W/m² | - |
| 1787946975 | 29.44° C | 61% | 1015.1 hPa | 0 mm | - | 630 W/m² | - |
| 1787946673 | 28.33° C | 72% | 1015.3 hPa | 0 mm | - | 633 W/m² | - |
| 1787946368 | 28.89° C | 69% | 1015.3 hPa | 0 mm | - | 117 W/m² | - |
| 1787946068 | 29.44° C | 67% | 1015.5 hPa | 0 mm | - | 152 W/m² | - |
| 1787945763 | 28.89° C | 67% | 1015.5 hPa | 0 mm | - | 167 W/m² | - |
| 1787945458 | 28.89° C | 65% | 1015.6 hPa | 0 mm | - | 257 W/m² | - |
| 1787945154 | 30° C | 62% | 1015.8 hPa | 0 mm | - | 597 W/m² | - |
| 1787944851 | 29.44° C | 65% | 1015.6 hPa | 0 mm | - | 621 W/m² | - |
| 1787944545 | 30° C | 67% | 1015.9 hPa | 0 mm | - | 559 W/m² | - |
| 1787944242 | 28.89° C | 67% | 1015.9 hPa | 0 mm | - | 725 W/m² | - |
| 1787943941 | 30° C | 65% | 1016 hPa | 0 mm | - | 192 W/m² | - |
| 1787943637 | 28.89° C | 67% | 1015.8 hPa | 0 mm | - | 366 W/m² | - |
| 1787943336 | 29.44° C | 67% | 1016 hPa | 0 mm | - | 427 W/m² | - |
| 1787943031 | 29.44° C | 66% | 1016.2 hPa | 0 mm | - | 746 W/m² | - |
| 1787942726 | 28.33° C | 68% | 1016.2 hPa | 0 mm | - | 255 W/m² | - |
| 1787942421 | 30.56° C | 63% | 1016.1 hPa | 0 mm | - | 815 W/m² | - |
| 1787942121 | 30° C | 64% | 1016 hPa | 0 mm | - | 781 W/m² | - |
| 1787941817 | 29.44° C | 61% | 1016.1 hPa | 0 mm | - | 732 W/m² | - |
| 1787941515 | 30° C | 67% | 1016.1 hPa | 0 mm | - | 724 W/m² | - |
| 1787941210 | 28.89° C | 66% | 1016.1 hPa | 0 mm | - | 727 W/m² | - |
| 1787940914 | 28.89° C | 68% | 1016.2 hPa | 0 mm | - | 765 W/m² | - |
| 1787940603 | 30° C | 66% | 1016.2 hPa | 0 mm | - | 770 W/m² | - |
| 1787940297 | 28.33° C | 68% | 1016.4 hPa | 0 mm | - | 744 W/m² | - |
| 1787939996 | 28.33° C | 69% | 1016.4 hPa | 0 mm | - | 743 W/m² | - |
* Rain latest hour (hover to see other rain measurements)
** Current wind speed in m/s (hover to see current wind gust speed)